Insider trading report: insider purchases reported on April 15, 2019

This page lists insider stock purchases reported on April 15, 2019. To query the history of insider trading activities (stock purchases, sales, and option exercises) for a particular company, click on the Issuer column. For the most current insider trading transactions see Realtime Insider Trading Report. For insider stock sales reported on this day see insider trading report: insider sales reported on April 15, 2019.

Insider stock purchases reported on April 15, 2019 (This report is sorted by stock symbol).
Sort by
Symbol
Company Insider Name   Shares     Price   Sort by
Value($)
Trade
Date
ATXI Avenue Therapeutics, Inc. 1st time Herskowitz Neil 1,000 4.52 4,520 2019-04-15
BTN Ballantyne Strong, Inc. 1st time Moglia Joseph H 8,096 2.12 17,131 2019-04-12
   Moglia Joseph H 8,096 2.14 17,325 2019-04-11
DARE Dare Bioscience, Inc. 1st time Hawley Roger 454,545 1.10 499,999 2019-04-11
FIXX Homology Medicines, Inc. 1st time Deerfield Mgmt Hif, L.p. 533,333 22.50 11,999,992 2019-04-12
GTE Gran Tierra Energy Inc. 1st time Gmt Exploration Co Llc (10% Owner) 337,400 2.46 830,004 2019-04-11
HY Hyster-yale Materials Handling, Inc. 1st time Rankin Roger F (Other) 21 64.99 1,364 2019-04-11
   Rankin Clara L T (Other) 6 64.99 389 2019-04-11
   Rankin Alfred M Et Al (Chairman) 197 64.99 12,803 2019-04-11
   Butler John C Jr (Other) 90 64.99 5,849 2019-04-11
   Butler Helen Rankin (Other) 90 64.99 5,849 2019-04-11
   Rankin Corbin (Other) 74 64.99 4,809 2019-04-11
   Rankin Alison A (Other) 21 64.99 1,364 2019-04-11
   Rankin Victoire G (Other) 197 64.99 12,803 2019-04-11
   Rankin Chloe O (Other) 22 64.99 1,429 2019-04-11
   Rankin Claiborne R (Director) 22 64.99 1,429 2019-04-11
   Rankin Claiborne R Jr (Other) 1 64.99 64 2019-04-11
   Rankin Thomas T (Other) 74 64.99 4,809 2019-04-11
   Seelbach Chloe R (Other) 3 64.99 194 2019-04-11
   Seelbach Scott W (Other) 3 64.99 194 2019-04-11
   Williams David B (Other) 90 64.99 5,849 2019-04-11
   Williams Clara R (Other) 90 64.99 5,849 2019-04-11
   Rankin Bruce T (Other) 100 64.99 6,498 2019-04-11
   Rankin Julia L (Other) 2 64.99 129 2019-04-11
   Kuipers Jacob A (Other) 2 64.99 129 2019-04-11
   Trust Dated 9/28/2000 Between Alfred M. Rankin, Jr., As Trustee & Bruce T. Rankin, For The Benefit Of Bruce T. Rankin (Other) 100 64.99 6,498 2019-04-11
   Trust Dated 1/1/1977, Pnc Bank & Alfred M. Rankin, Jr. As Co-trustees & Clara L.t. Rankin, Fbo Clara L.t. Rankin (Other) 6 64.99 389 2019-04-11
   Seelbach Thomas Wilson (Other) 1 64.99 64 2019-04-11
   Chloe R. Seelbach, Trustee Under Claiborne Rankin Trust For Children Of Chloe R. Seelbach Dtd 12/21/04 Fbo Thomas Wilson Seelbach (Other) 1 64.99 64 2019-04-11
   Chloe R. Seelbach, Trustee Uad 2/2/05 The Taplin Elizabeth Seelbach Trust (Other) 1 64.99 64 2019-04-11
   Seelbach Taplin E (Other) 1 64.99 64 2019-04-11
   Chloe R. Seelbach, Trustee Under Claiborne Rankin Trust For Children Of Chloe R. Seelbach Dtd 12/21/04 Fbo Isabelle Scott Seelbach (Other) 1 64.99 64 2019-04-11
   Seelbach Isabelle (Other) 1 64.99 64 2019-04-11
   2013 Trust Fbo Evelyn R. Kuipers (Other) 1 64.99 64 2019-04-11
   Kuipers Evelyn R (Other) 1 64.99 64 2019-04-11
   Claiborne Rankin Trust For Children Of Claiborne Rankin Jr Fbo Claiborne Read Rankin Iii (Other) 1 64.99 64 2019-04-11
   Trust For Children Of Julia Kuipers Fbo Matilda Alan Kuipers (Other) 1 64.99 64 2019-04-11
   Kuipers Matilda Alan (Other) 1 64.99 64 2019-04-11
   Rankin Claiborne Read Iii (Other) 1 64.99 64 2019-04-11
   Rankin Lauran (Other) 1 64.99 64 2019-04-11
IGXT Intelgenx Technologies Corp. 1st time Godin Andre (EVP and CFO) 15,000 .49 7,425 2019-04-12
KMI Kinder Morgan, Inc. 1st time Kinder Richard D (Executive Chairman) 175,000 19.75 3,456,250 2019-04-15
LTS Ladenburg Thalmann Financial Services Inc. 1st time Malamed Adam Scott (Executive VP and COO) 10,000 3.46 34,600 2019-04-12
MVC Mvc Capital, Inc. 1st time Tokarz Michael T (Chairman) 2,100 9.20 19,320 2019-04-12
NICK Nicholas Financial Inc 1st time Malson Kelly M (CFO) 1,943 9.67 18,792 2019-04-15
NYSE:PD Pagerduty, Inc. 1st time Deer Viii & Co. Ltd. (10% Owner) 300,000 24.00 7,200,000 2019-04-15
OPK Opko Health, Inc. 1st time Frost Nevada Investments Trust (10% Owner) 20,000 2.50 49,960 2019-04-12
RVP Retractable Technologies Inc 1st time Shaw Thomas J (President and CEO) 2,000 .70 1,392 2019-04-12
TPL Texas Pacific Land Trust 1st time Kinetics Asset Management Llc (10% Owner) 42 903.52 37,947 2019-04-12
UPL Ultra Petroleum Corp 1st time Stratton J. Jay Jr. (See Remarks) 80,000 .55 44,160 2019-04-11
YORW York Water Co 1st time Dotzel Cynthia (Director) 30 33.91 1,017 2019-04-15
   Kain George Hay Iii Esq (Director) 0 33.91 0 2019-04-15
   Gang Michael W (Director) 54 33.91 1,831 2019-04-15
   Keller Jody L (Director) 11 33.91 373 2019-04-15
   Mcglaughlin Erin C (Director) 4 33.91 135 2019-04-15
   Cawley James H (Director) 1 33.91 33 2019-04-15